• In Österreich
  • Länderverzeichnis
  • Für 7 Tage
  • Wassertemperatur
  • Satellitenkarten
  • Wetterkarte
  • News
  • Widgets
  • user-avatar
    Anmelden

    Stündliche Wetter Bad Tatzmanndorf

    Heute, 19 August, Sonntag

    Zeit Temperatur Niederschläge Wind Luftdruck Luftfeuchtigkeit
    00:00 +22°C° 0 mm 1 m/S 731 mmHg 60%
    01:00 +21°C° 0 mm 1 m/S 731 mmHg 60%
    02:00 +21°C° 0 mm 1 m/S 731 mmHg 60%
    03:00 +21°C° 0 mm 1 m/S 731 mmHg 61%
    04:00 +21°C° 0 mm 1 m/S 731 mmHg 61%
    05:00 +21°C° 0 mm 2 m/S 731 mmHg 60%
    06:00 +23°C° 0 mm 2 m/S 732 mmHg 59%
    07:00 +24°C° 0 mm 1 m/S 732 mmHg 56%
    08:00 +26°C° 0 mm 1 m/S 732 mmHg 50%
    09:00 +28°C° 0 mm 2 m/S 732 mmHg 45%
    10:00 +30°C° 0 mm 2 m/S 732 mmHg 39%
    11:00 +31°C° 0 mm 2 m/S 732 mmHg 36%
    12:00 +32°C° 0 mm 2 m/S 732 mmHg 33%
    13:00 +32°C° 0 mm 2 m/S 732 mmHg 31%
    14:00 +32°C° 0 mm 2 m/S 731 mmHg 31%
    15:00 +32°C° 0 mm 1 m/S 731 mmHg 32%
    16:00 +32°C° 0 mm 1 m/S 731 mmHg 33%
    17:00 +30°C° 0 mm 1 m/S 730 mmHg 38%
    18:00 +28°C° 0 mm 1 m/S 730 mmHg 43%
    19:00 +24°C° 0 mm 0 m/S 730 mmHg 48%
    20:00 +25°C° 0 mm 1 m/S 730 mmHg 50%
    21:00 +24°C° 0 mm 1 m/S 730 mmHg 51%
    22:00 +23°C° 0 mm 1 m/S 730 mmHg 53%
    23:00 +23°C° 0 mm 1 m/S 730 mmHg 54%

    Morgen, 20 August, Montag

    Zeit Temperatur Niederschläge Wind Luftdruck Luftfeuchtigkeit
    00:00 +22°C° 0 mm 1 m/S 730 mmHg 55%
    01:00 +22°C° 0 mm 1 m/S 730 mmHg 55%
    02:00 +21°C° 0 mm 1 m/S 730 mmHg 56%
    03:00 +21°C° 0 mm 1 m/S 730 mmHg 56%
    04:00 +21°C° 0 mm 1 m/S 730 mmHg 57%
    05:00 +22°C° 0 mm 1 m/S 730 mmHg 56%
    06:00 +23°C° 0 mm 1 m/S 730 mmHg 56%
    07:00 +24°C° 0 mm 1 m/S 730 mmHg 55%
    08:00 +26°C° 0 mm 1 m/S 731 mmHg 49%
    09:00 +29°C° 0 mm 1 m/S 731 mmHg 43%
    10:00 +31°C° 0 mm 1 m/S 731 mmHg 37%
    11:00 +32°C° 0 mm 1 m/S 731 mmHg 36%
    12:00 +32°C° 0 mm 1 m/S 730 mmHg 34%
    13:00 +33°C° 0 mm 1 m/S 730 mmHg 32%
    14:00 +33°C° 0 mm 1 m/S 730 mmHg 34%
    15:00 +32°C° 0 mm 1 m/S 730 mmHg 35%
    16:00 +32°C° 0 mm 1 m/S 729 mmHg 36%
    17:00 +30°C° 0 mm 1 m/S 729 mmHg 42%
    18:00 +28°C° 0 mm 1 m/S 729 mmHg 48%
    19:00 +26°C° 0 mm 1 m/S 729 mmHg 54%
    20:00 +25°C° 0,1 mm 2 m/S 729 mmHg 57%
    21:00 +24°C° 0,1 mm 2 m/S 730 mmHg 61%
    22:00 +23°C° 0,1 mm 2 m/S 730 mmHg 64%
    23:00 +23°C° 0,1 mm 2 m/S 730 mmHg 66%

    übermorgen, 21 August, Dienstag

    Zeit Temperatur Niederschläge Wind Luftdruck Luftfeuchtigkeit
    00:00 +21°C° 0,1 mm 2 m/S 730 mmHg 68%
    01:00 +21°C° 0,1 mm 2 m/S 730 mmHg 69%
    02:00 +21°C° 0 mm 2 m/S 730 mmHg 71%
    03:00 +20°C° 0 mm 2 m/S 730 mmHg 73%
    04:00 +20°C° 0 mm 2 m/S 730 mmHg 74%
    05:00 +21°C° 0 mm 2 m/S 730 mmHg 72%
    06:00 +22°C° 0 mm 3 m/S 731 mmHg 70%
    07:00 +24°C° 0 mm 3 m/S 731 mmHg 68%
    08:00 +25°C° 0 mm 3 m/S 731 mmHg 62%
    09:00 +27°C° 0 mm 3 m/S 731 mmHg 55%
    10:00 +29°C° 0 mm 3 m/S 732 mmHg 48%
    11:00 +30°C° 0,2 mm 3 m/S 731 mmHg 47%
    12:00 +30°C° 0,2 mm 3 m/S 731 mmHg 45%
    13:00 +31°C° 0,2 mm 3 m/S 731 mmHg 44%
    14:00 +31°C° 0,3 mm 2 m/S 731 mmHg 44%
    15:00 +31°C° 0,3 mm 2 m/S 730 mmHg 44%
    16:00 +31°C° 0,3 mm 2 m/S 730 mmHg 45%
    17:00 +29°C° 0,1 mm 2 m/S 730 mmHg 50%
    18:00 +27°C° 0,1 mm 2 m/S 730 mmHg 55%
    19:00 +25°C° 0,1 mm 2 m/S 730 mmHg 61%
    20:00 +24°C° 0 mm 2 m/S 730 mmHg 64%
    21:00 +23°C° 0 mm 2 m/S 731 mmHg 67%
    22:00 +23°C° 0 mm 2 m/S 731 mmHg 70%
    23:00 +21°C° 0 mm 2 m/S 731 mmHg 72%

    22 August, Mittwoch

    Zeit Temperatur Niederschläge Wind Luftdruck Luftfeuchtigkeit
    00:00 +20°C° 0 mm 2 m/S 731 mmHg 75%
    01:00 +20°C° 0 mm 2 m/S 731 mmHg 77%
    02:00 +20°C° 0 mm 1 m/S 731 mmHg 78%
    03:00 +20°C° 0 mm 1 m/S 731 mmHg 80%
    04:00 +20°C° 0 mm 1 m/S 731 mmHg 81%
    05:00 +21°C° 0 mm 1 m/S 731 mmHg 78%
    06:00 +22°C° 0 mm 1 m/S 731 mmHg 75%
    07:00 +23°C° 0 mm 1 m/S 731 mmHg 72%
    08:00 +25°C° 0 mm 1 m/S 731 mmHg 65%
    09:00 +27°C° 0 mm 1 m/S 731 mmHg 58%
    10:00 +29°C° 0 mm 1 m/S 731 mmHg 51%
    11:00 +30°C° 0 mm 1 m/S 731 mmHg 48%
    12:00 +31°C° 0 mm 1 m/S 731 mmHg 45%
    13:00 +32°C° 0 mm 2 m/S 730 mmHg 41%
    14:00 +32°C° 0 mm 2 m/S 730 mmHg 40%
    15:00 +32°C° 0 mm 2 m/S 730 mmHg 39%
    16:00 +32°C° 0 mm 2 m/S 730 mmHg 38%
    17:00 +30°C° 0 mm 1 m/S 729 mmHg 44%
    18:00 +28°C° 0 mm 1 m/S 729 mmHg 50%
    19:00 +26°C° 0 mm 1 m/S 729 mmHg 56%
    20:00 +25°C° 0 mm 1 m/S 729 mmHg 58%
    21:00 +24°C° 0 mm 1 m/S 729 mmHg 60%
    22:00 +23°C° 0 mm 1 m/S 729 mmHg 62%
    23:00 +23°C° 0 mm 1 m/S 729 mmHg 64%

    23 August, Donnerstag

    Zeit Temperatur Niederschläge Wind Luftdruck Luftfeuchtigkeit
    00:00 +22°C° 0 mm 1 m/S 729 mmHg 65%
    01:00 +22°C° 0 mm 1 m/S 729 mmHg 66%
    02:00 +22°C° 0 mm 1 m/S 729 mmHg 67%
    03:00 +21°C° 0 mm 1 m/S 729 mmHg 68%
    04:00 +21°C° 0 mm 1 m/S 729 mmHg 69%
    05:00 +22°C° 0 mm 1 m/S 729 mmHg 67%
    06:00 +23°C° 0 mm 1 m/S 729 mmHg 64%
    07:00 +24°C° 0 mm 1 m/S 729 mmHg 62%
    08:00 +26°C° 0 mm 1 m/S 729 mmHg 55%
    09:00 +29°C° 0 mm 1 m/S 729 mmHg 48%
    10:00 +31°C° 0 mm 2 m/S 729 mmHg 41%
    11:00 +31°C° 0 mm 2 m/S 729 mmHg 39%
    12:00 +33°C° 0 mm 3 m/S 728 mmHg 37%
    13:00 +33°C° 0 mm 3 m/S 728 mmHg 35%
    14:00 +33°C° 0 mm 3 m/S 728 mmHg 35%
    15:00 +33°C° 0 mm 3 m/S 727 mmHg 35%
    16:00 +33°C° 0 mm 3 m/S 727 mmHg 36%
    17:00 +30°C° 0 mm 2 m/S 727 mmHg 41%
    18:00 +28°C° 0 mm 2 m/S 726 mmHg 47%
    19:00 +26°C° 0 mm 1 m/S 726 mmHg 52%
    20:00 +25°C° 0 mm 1 m/S 726 mmHg 54%
    21:00 +24°C° 0 mm 1 m/S 726 mmHg 56%
    22:00 +23°C° 0 mm 1 m/S 726 mmHg 58%
    23:00 +23°C° 0 mm 1 m/S 726 mmHg 59%

    24 August, Freitag

    Zeit Temperatur Niederschläge Wind Luftdruck Luftfeuchtigkeit
    00:00 +22°C° 0 mm 1 m/S 726 mmHg 60%
    01:00 +22°C° 0 mm 1 m/S 726 mmHg 61%
    02:00 +22°C° 0 mm 1 m/S 725 mmHg 62%
    03:00 +21°C° 0 mm 1 m/S 725 mmHg 64%
    04:00 +21°C° 0 mm 1 m/S 725 mmHg 65%
    05:00 +22°C° 0 mm 1 m/S 725 mmHg 63%
    06:00 +23°C° 0 mm 1 m/S 725 mmHg 62%
    07:00 +24°C° 0 mm 1 m/S 725 mmHg 60%
    08:00 +26°C° 0 mm 1 m/S 725 mmHg 55%
    09:00 +28°C° 0 mm 1 m/S 725 mmHg 50%
    10:00 +30°C° 0 mm 2 m/S 725 mmHg 45%
    11:00 +30°C° 0,2 mm 2 m/S 724 mmHg 42%
    12:00 +31°C° 0,2 mm 3 m/S 724 mmHg 40%
    13:00 +33°C° 0,2 mm 3 m/S 723 mmHg 37%
    14:00 +33°C° 0 mm 3 m/S 723 mmHg 37%
    15:00 +33°C° 0 mm 3 m/S 723 mmHg 37%
    16:00 +33°C° 0 mm 3 m/S 722 mmHg 36%
    17:00 +30°C° 0 mm 3 m/S 722 mmHg 42%
    18:00 +28°C° 0 mm 2 m/S 721 mmHg 49%
    19:00 +26°C° 0 mm 2 m/S 721 mmHg 55%
    20:00 +25°C° 0 mm 2 m/S 721 mmHg 58%
    21:00 +24°C° 0 mm 2 m/S 721 mmHg 62%
    22:00 +21°C° 0 mm 2 m/S 721 mmHg 65%
    23:00 +21°C° 0 mm 2 m/S 721 mmHg 69%
    Mehr zeigen